Flag for Germany Weather past 2 weeks in Lutherstadt Eisleben, Saxony-Anhalt, Germany

Now
55 °F

Passing clouds.


Feels Like: 55 °F
Forecast: 58 / 70 °F
Wind: 2 mph from Southeast

Location: Leipzig-Schkeuditz

Current Time: Sep 18, 2014 at 8:36:08 AM

Latest Report: Sep 18, 2014 at 8:00 AM


Visibility: 16 mi

Pressure: 29.94 "Hg

Humidity: 92%

Dew point: 53 °F

Location of Lutherstadt EislebenLocation

Historic Weather in Lutherstadt Eisleben — Graph

°F

Lutherstadt Eisleben temperature yesterday

Maximum temperature yesterday: 75 °F (at 4:00 PM)
Minimum temperature yesterday: 56 °F (at 7:00 AM)
Average temperature yesterday: 65 °F

Past Weeks' High & Low Weather Summary

 TemperatureHumidityPressure
High80 °F (Sep 6, 4:00 PM)99% (Sep 13, 6:00 AM)30.27 "Hg (Sep 13, 6:00 AM)
Low51 °F (Sep 9, 7:00 AM)40% (Sep 17, 5:00 PM)29.85 "Hg (Sep 6, 4:00 PM)
Average62 °F85%30.04 "Hg
* Reported Sep 3 7:00 AM — Sep 18 7:00 AM, Lutherstadt Eisleben, Weather by CustomWeather, © 2014

Note: Actual official high and low records may vary slightly from our data, if they occured in-between our weather recording intervals... More about our weather records

Advertising

Lutherstadt Eisleben weather history for previous 24 hours

 ConditionsComfort  
Time TempWeatherWind HumidityBarometerVisibility
7:00 AM
Sep 18
53 °FPassing clouds.3 mph93%29.94 "Hg9 mi
6:00 AM53 °FClear.3 mph93%29.94 "Hg16 mi
5:00 AM55 °FClear.3 mph92%29.94 "Hg19 mi
4:00 AM56 °FClear.5 mph89%29.94 "Hg19 mi
3:00 AM56 °FClear.3 mph89%29.95 "Hg19 mi
2:00 AM56 °FClear.5 mph90%29.95 "Hg22 mi
1:00 AM57 °FClear.5 mph88%29.96 "Hg22 mi
12:00 AM58 °FClear.3 mph84%29.96 "Hg22 mi
10:00 PM
Sep 17
60 °FClear.5 mph80%29.96 "Hg19 mi
9:00 PM62 °FPassing clouds.3 mph78%29.96 "Hg19 mi
8:00 PM67 °FPassing clouds.3 mph65%29.95 "Hg19 mi
7:00 PM70 °FPassing clouds.5 mph55%29.95 "Hg28 mi
6:00 PM73 °FPassing clouds.6 mph47%29.94 "Hg28 mi
5:00 PM75 °FPassing clouds.7 mph40%29.94 "Hg28 mi
4:00 PM75 °FPassing clouds.7 mph49%29.95 "Hg25 mi
3:00 PM73 °FPassing clouds.7 mph54%29.96 "Hg22 mi
2:00 PM72 °FPassing clouds.7 mph55%29.98 "Hg19 mi
1:00 PM71 °FPassing clouds.6 mph61%29.98 "Hg16 mi
12:00 PM69 °FPassing clouds.6 mph64%30.00 "Hg16 mi
10:00 AM64 °FSunny.5 mph80%30.02 "Hg9 mi
9:00 AM60 °FSunny.5 mph87%30.02 "Hg7 mi
8:00 AM58 °FSunny.3 mph93%30.02 "Hg6 mi
Weather by CustomWeather, © 2014

See weather overviewHow to use our weather pages